EW8935 Weather Reports


time (UTC)temp
C
wind
direction
speed
KPH
gust
KPH
rain 1hr
cm
rain 24hr
cm
rain mn
cm
humidity
%
barometer
mb
20260505140317 14 0.0 0.0 0.00 0.10 0.10 82 1007.9
20260505124317 13 0.0 1.6 0.00 0.10 0.10 83 1007.4
20260505123317 13 0.0 0.0 0.00 0.10 0.10 84 1007.3
20260505122317 13 0.0 0.0 0.00 0.10 0.10 84 1007.0
20260505121317 14 0.0 0.0 0.00 0.10 0.10 85 1006.8
20260505120317 14 0.0 0.0 0.00 0.10 0.10 86 1006.8
20260505115317 14 0.0 0.0 0.00 0.10 0.10 87 1006.9
20260505114317 14 0.0 0.0 0.00 0.10 0.10 89 1006.8
20260505113317 15 0.0 0.0 0.00 0.10 0.10 88 1006.8
20260505112317 15 0.0 0.0 0.00 0.10 0.10 87 1006.6
20260505111317 15 0.0 0.0 0.00 0.10 0.10 86 1006.1
20260505110337 16 0.0 0.0 0.00 0.10 0.10 87 1007.1
20260505101317 16 0.0 0.0 0.03 0.10 0.10 89 1006.7
20260505100317 16 0.0 0.0 0.03 0.10 0.10 89 1006.6
20260505095317 16 293 1.6 6.4 0.00 0.08 0.08 88 1006.4
20260505094316 16 0.0 0.0 0.00 0.08 0.08 86 1005.8
20260505093316 16 0.0 0.0 0.00 0.08 0.08 83 1005.5
20260505092317 16 0.0 0.0 0.03 0.08 0.08 83 1005.2
20260505091317 16 0.0 0.0 0.05 0.08 0.08 86 1004.8
20260505090316 16 0.0 0.0 0.08 0.08 0.08 88 1004.8
20260505085317 16 0.0 0.0 0.08 0.08 0.08 89 1004.3
20260505084316 16 0.0 0.0 0.08 0.08 0.08 88 1004.4
20260505083317 16 203 1.6 11.3 0.08 0.08 0.08 88 1004.7
20260505082316 17 0.0 0.0 0.05 0.05 0.05 88 1006.5
20260505081417 17 270 6.4 11.3 0.03 0.03 0.03 86 1006.8
20260505080316 17 293 6.4 19.3 0.00 0.00 0.00 84 1006.6
20260505075317 17 180 1.6 14.5 0.00 0.00 0.00 82 1006.3
20260505074316 17 0.0 0.0 0.00 0.00 0.00 80 1006.4
20260505073317 17 0.0 0.0 0.00 0.00 0.00 77 1006.6
20260505072317 18 0.0 0.0 0.00 0.00 0.00 74 1006.3
20260505071316 18 0.0 0.0 0.00 0.00 0.00 73 1006.3
20260505070336 18 0.0 0.0 0.00 0.00 0.00 72 1006.2
20260505065316 18 0.0 0.0 0.00 0.00 0.00 72 1005.9
20260505064316 18 0.0 0.0 0.00 0.00 0.00 72 1006.0
20260505063316 18 0.0 0.0 0.00 0.00 0.00 71 1006.5
20260505062316 18 0.0 0.0 0.00 0.00 0.00 71 1006.5
20260505061318 18 203 1.6 4.8 0.00 0.00 0.00 71 1006.7
20260505060318 18 0.0 0.0 0.00 0.00 0.00 70 1006.7
20260505055318 18 0.0 0.0 0.00 0.00 0.00 70 1006.6
20260505054338 18 0.0 1.6 0.00 0.00 0.00 70 1006.6
20260505053318 19 0.0 3.2 0.00 0.00 0.00 69 1006.5
20260505052318 18 203 1.6 4.8 0.00 0.00 0.00 70 1006.4
20260505051318 18 0.0 1.6 0.00 0.00 0.00 69 1006.5
20260505050318 18 0.0 0.0 0.00 0.00 0.00 69 1006.4
20260505041317 19 0.0 0.0 0.00 0.00 0.00 68 1006.9
20260505040318 19 0.0 0.0 0.00 0.00 0.00 68 1007.0
20260505035318 19 0.0 0.0 0.00 0.00 0.00 68 1007.3
20260505034318 20 0.0 0.0 0.00 0.00 0.00 67 1007.4
20260505033318 20 0.0 0.0 0.00 0.00 0.00 67 1007.4
20260505032318 20 0.0 0.0 0.00 0.00 0.00 66 1007.3
20260505031318 20 0.0 0.0 0.00 0.00 0.00 66 1007.4
20260505030318 20 0.0 0.0 0.00 0.00 0.00 66 1007.3
20260505025318 20 0.0 0.0 0.00 0.00 0.00 65 1007.4
20260505024318 20 0.0 0.0 0.00 0.00 0.00 65 1007.3
20260505023318 21 0.0 0.0 0.00 0.00 0.00 64 1007.2
20260505022318 21 0.0 0.0 0.00 0.00 0.00 63 1007.0
20260505021318 21 0.0 0.0 0.00 0.00 0.00 63 1006.8
20260505020318 21 0.0 0.0 0.00 0.00 0.00 62 1006.6
20260505015318 21 0.0 0.0 0.00 0.00 0.00 61 1006.5
20260505014318 21 180 1.6 4.8 0.00 0.00 0.00 60 1006.2
20260505013318 21 0.0 0.0 0.00 0.00 0.00 60 1006.0
20260505012318 22 0.0 0.0 0.00 0.00 0.00 59 1005.9
20260505011318 22 0.0 0.0 0.00 0.00 0.00 57 1005.9
20260505010318 22 0.0 0.0 0.00 0.00 0.00 57 1005.6
20260505005358 22 0.0 0.0 0.00 0.00 0.00 55 1005.6
20260505004318 23 180 1.6 6.4 0.00 0.00 0.00 54 1005.6
20260505003318 23 0.0 0.0 0.00 0.00 0.00 53 1005.5
20260505002318 23 0.0 0.0 0.00 0.00 0.00 51 1005.4
20260505001317 23 0.0 0.0 0.00 0.00 0.00 50 1005.4
20260505000318 24 0.0 0.0 0.00 0.00 0.00 49 1005.5
20260504235318 25 0.0 0.0 0.00 0.00 0.00 48 1005.6
20260504234318 25 0.0 0.0 0.00 0.00 0.00 47 1005.6
20260504233317 25 0.0 4.8 0.00 0.00 0.00 46 1005.4
20260504232317 25 0.0 4.8 0.00 0.00 0.00 46 1005.4
20260504231338 26 0.0 0.0 0.00 0.00 0.00 46 1005.5
20260504230318 26 180 1.6 11.3 0.00 0.00 0.00 45 1005.6
20260504225318 26 0.0 4.8 0.00 0.00 0.00 45 1005.5
20260504224317 26 0.0 6.4 0.00 0.00 0.00 46 1005.6
20260504223318 26 0.0 0.0 0.00 0.00 0.00 46 1005.6
20260504222338 26 270 3.2 9.7 0.00 0.00 0.00 44 1005.7
20260504221318 26 203 1.6 8.0 0.00 0.00 0.00 44 1005.7
20260504220318 26 203 1.6 11.3 0.00 0.00 0.00 46 1005.7
20260504215338 26 203 4.8 9.7 0.00 0.00 0.00 46 1005.9
20260504214317 26 203 4.8 12.9 0.00 0.00 0.00 46 1005.9
20260504213317 26 203 1.6 9.7 0.00 0.00 0.00 46 1006.1
20260504212318 26 0.0 1.6 0.00 0.00 0.00 47 1006.2
20260504211317 26 203 3.2 19.3 0.00 0.00 0.00 47 1006.2
20260504210338 27 248 4.8 17.7 0.00 0.00 0.00 44 1006.4
20260504205318 27 180 3.2 11.3 0.00 0.00 0.00 44 1006.6
20260504204317 27 0.0 0.0 0.00 0.00 0.00 45 1006.6
20260504203317 27 180 11.3 20.9 0.00 0.00 0.00 44 1006.7
20260504202317 27 180 1.6 9.7 0.00 0.00 0.00 46 1006.9
20260504201317 27 158 1.6 14.5 0.00 0.00 0.00 45 1007.0
20260504200339 27 0.0 1.6 0.00 0.00 0.00 45 1007.1
20260504195317 27 203 3.2 9.7 0.00 0.00 0.00 45 1007.2
20260504194317 27 270 1.6 11.3 0.00 0.00 0.00 45 1007.2
20260504193337 27 0.0 0.0 0.00 0.00 0.00 44 1007.3
20260504192317 26 0.0 4.8 0.00 0.00 0.00 47 1007.2
20260504191338 26 180 3.2 14.5 0.00 0.00 0.00 45 1007.3
20260504190317 26 248 1.6 4.8 0.00 0.00 0.00 48 1007.4
20260504185317 26 0.0 0.0 0.00 0.00 0.00 46 1007.4
20260504184337 26 203 3.2 12.9 0.00 0.00 0.00 45 1007.4
20260504183318 26 0.0 1.6 0.00 0.00 0.00 47 1007.4
20260504182357 26 293 1.6 6.4 0.00 0.00 0.00 46 1007.3
20260504181317 26 0.0 6.4 0.00 0.00 0.00 47 1007.4
20260504180337 25 180 4.8 27.4 0.00 0.00 0.00 46 1007.4
20260504175317 25 180 1.6 9.7 0.00 0.00 0.00 47 1007.4
20260504174317 25 180 4.8 12.9 0.00 0.00 0.00 47 1007.5
20260504173317 25 203 4.8 25.7 0.00 0.00 0.00 48 1007.7
20260504172317 25 203 3.2 14.5 0.00 0.00 0.00 48 1007.8
20260504171317 25 225 4.8 16.1 0.00 0.00 0.00 47 1008.0
20260504170317 25 180 1.6 16.1 0.00 0.00 0.00 49 1008.0
20260504160317 23 158 6.4 19.3 0.00 0.00 0.00 50 1008.2
20260504150317 21 0.0 3.2 0.00 0.00 0.00 53 1008.8